Downstream station:
SHEF ID: BZRK1 SF COTTONWOOD R NR BAZAAR, KS
STATION TYPE:
PRECIP STAGE RIV-FLOW BAT-LOAD
in ft cfs volt
Ccp-Rev Ccp-Rev Ccp-Rev Ccp-Rev
(US/Central)
11/25 00:00 0.00 7.02 45 12.65
11/25 01:00 0.00 7.03 46 12.65
11/25 02:00 0.00 7.02 45 12.65
11/25 03:00 0.00 7.01 44 12.60
11/25 04:00 0.00 7.03 46 12.60
11/25 05:00 0.00 7.02 45 12.54
11/25 06:00 0.00 7.02 45 12.54
11/25 07:00 0.00 7.03 46 12.48
11/25 08:00 0.00 7.03 46 12.48
11/25 09:00 0.00 7.03 46 13.12
11/25 10:00 0.00 7.03 46 14.00
11/25 11:00 0.00 7.02 45 14.53
11/25 12:00 0.00 7.02 45 14.41
11/25 13:00 0.00 7.03 46 14.41
11/25 14:00 0.00 7.03 46 14.41
11/25 15:00 0.00 7.02 45 14.06
11/25 16:00 0.00 7.02 45 14.00
11/25 17:00 0.00 7.02 45 13.77
11/25 18:00 0.00 7.03 46 13.07
11/25 19:00 0.00 7.04 47 12.77
11/25 20:00 0.00 7.07 49 12.71
11/25 21:00 0.00 7.08 50 12.65
11/25 22:00 0.00 7.08 50 12.65
11/25 23:00 ---- ---- ---- ----